Location: Medlow Airstrip Trail, Medlow Bath NSW 2780, Australia
(33.6682°S, 150.3233°E)
Time: 01:09:20
(UTC+11:00)

Explorer 11/Cluster Stage 4 - Pass Details

Date: 28 September 2019
Orbit: 467 x 1259 km, 28.8° (Epoch: 14 October)

Event Time Altitude Azimuth Distance (km) Brightness Sun altitude
Rises 08:30:21 0° 284° (WNW) 2,667 8.9 33.6°
Reaches altitude 10° 08:32:28 10° 290° (WNW) 1,855 8.2 34.1°
Maximum altitude 08:36:34 47° 4° (N) 854 7.6 34.8°
Drops below altitude 10° 08:41:37 10° 77° (ENE) 2,278 10.3 35.8°
Sets 08:44:28 0° 82° (E) 3,353 10.7 36.3°
